Dewpoint
54 54 54 57 59 61 62 63 64 64 66 67 68 68 69 70 71 68 67 68 67 67 70 71 70 70 70 69 69 69 69 68 69
52 53 53 55 57 60 60 60 62 63 65 67 68 68 70 70 70 69 68 70 70 70 71 71 72 71 70 70 70 70 70 69 68
50 53 54 55 56 58 59 59 60 62 64 65 67 67 68 69 70 70 70 71 70 71 72 72 73 72 71 71 71 70 71 71 70
49 52 54 54 55 57 59 59 60 61 64 65 66 67 67 68 70 70 70 70 72 72 72 72 71 72 72 71 71 71 71 71 70
48 53 55 54 55 56 58 59 59 61 63 65 66 67 69 69 70 70 70 70 71 71 70 71 71 72 71 70 70 70 70 70 69
50 54 54 53 53 57 60 62 63 65 66 66 66 68 68 69 71 68 67 68 66 67 67 66 65 68 70 70 70 69 69 69 69
51 55 55 53 53 57 61 63 65 67 67 67 67 67 68 69 69 69 68 66 66 66 66 66 65 66 66 67 67 67 67 67 67
50 53 55 55 53 57 61 64 67 67 67 68 68 68 69 70 69 67 67 67 67 66 66 66 66 65 65 65 62 61 65 65 64
52 51 55 56 56 58 62 65 67 68 69 70 70 70 69 69 67 67 67 67 66 65 64 65 64 63 63 62 58 61 61 62 61
53 55 55 57 57 60 63 66 68 69 69 70 70 69 68 68 67 67 66 65 64 64 63 64 63 63 62 63 62 59 60 60 60
54 56 57 58 58 61 65 67 67 68 69 68 68 67 66 66 66 65 64 64 64 63 62 61 60 60 61 61 57 54 55 58 60
55 57 59 60 60 64 67 67 68 68 68 67 66 65 65 66 64 64 64 64 62 60 60 61 60 60 60 60 58 51 52 56 57
55 58 61 63 64 66 66 67 68 67 66 65 64 64 64 65 65 64 63 62 61 60 60 60 60 60 60 57 59 50 50 52 54
57 60 63 64 65 65 65 66 65 65 64 63 64 65 65 64 64 63 62 61 61 60 60 60 59 59 59 58 55 55 50 50 53
60 62 64 64 64 64 65 65 64 64 63 64 65 65 62 61 62 61 61 61 60 60 60 59 59 58 56 56 55 49 49 50 50
61 63 64 65 64 65 65 65 64 63 64 65 64 63 62 61 60 60 61 60 59 58 58 56 55 54 51 47 45 48 49 49 49
62 63 64 65 65 65 65 65 64 64 65 64 63 63 61 59 59 58 58 58 57 53 53 52 52 46 42 43 43 44 46 48 50
62 63 64 65 65 65 65 65 65 65 64 64 63 62 60 60 59 58 57 54 53 51 52 50 46 44 44 43 40 45 48 48 48
63 63 64 64 64 65 65 65 65 64 64 64 62 61 60 59 59 56 55 55 54 50 51 51 48 47 46 44 45 46 47 47 47
63 63 64 64 64 64 64 64 64 64 64 64 63 61 61 59 56 54 54 52 50 49 51 49 47 46 45 46 45 45 46 46 47
Wind_Speed
14 15 15 14 15 16 17 17 17 16 17 17 16 14 14 12 10 9 9 7 5 6 5 7 8 11 11 11 11 11 12 11 12
13 15 14 14 16 16 17 18 17 15 16 15 15 15 13 12 10 7 6 4 3 4 2 2 7 9 10 10 11 12 12 12 12
12 16 15 14 16 15 16 16 16 15 14 15 14 14 12 12 9 7 7 8 8 7 2 3 5 8 8 10 10 11 12 12 12
14 18 17 15 15 15 15 14 14 15 14 14 14 14 12 10 7 7 6 5 4 2 3 3 2 4 7 6 8 10 11 11 10
13 18 18 17 16 16 16 15 15 16 16 15 14 14 13 12 10 11 11 9 7 5 3 2 1 1 4 6 7 7 7 9 8
15 21 22 20 20 19 18 18 16 16 16 15 14 14 13 13 13 10 8 8 8 6 5 4 4 3 4 3 2 3 4 6 6
16 20 22 21 22 22 21 19 18 17 16 14 14 14 15 14 13 12 11 9 8 7 5 3 3 2 2 3 3 3 3 3 3
15 19 22 22 22 22 21 19 18 17 17 16 15 15 15 14 14 13 12 9 7 5 4 5 3 2 2 0 1 9 9 5 4
14 20 22 23 22 22 20 19 19 20 19 18 17 16 17 16 14 15 11 8 6 5 5 4 4 5 4 2 6 8 8 8 4
14 17 21 22 23 22 21 21 22 21 19 17 17 16 16 13 12 12 13 10 7 5 4 3 3 3 2 4 6 9 9 9 5
13 13 17 19 20 19 19 20 20 21 20 20 20 20 17 14 11 10 9 10 8 5 4 4 4 3 3 4 8 12 11 8 4
12 11 13 14 15 16 18 20 22 23 24 19 18 18 18 12 9 9 7 6 7 5 5 5 5 6 5 5 6 11 12 11 5
7 9 11 13 14 16 18 20 24 26 25 22 20 23 21 20 17 10 11 5 6 5 6 5 8 8 7 4 5 11 12 11 8
5 7 11 13 16 18 20 23 25 25 23 19 10 7 11 12 11 15 17 6 5 6 6 8 8 8 6 5 4 6 9 10 6
6 8 10 12 14 16 20 23 23 20 19 14 14 16 17 16 8 8 15 11 7 7 9 9 6 6 6 5 3 5 7 6 6
6 8 9 8 10 14 17 21 20 18 15 16 16 16 15 16 15 10 11 12 10 10 10 7 9 7 5 4 3 4 7 3 2
4 5 8 9 11 13 13 15 17 14 17 18 21 19 18 16 16 14 12 11 12 12 11 9 7 5 4 4 3 3 3 1 3
5 8 8 11 11 11 12 13 14 14 16 19 20 19 17 14 12 13 11 10 8 7 4 2 7 6 5 2 3 6 6 6 5
6 9 11 12 10 10 12 13 14 14 16 20 21 19 16 14 15 16 14 12 8 11 7 6 8 9 6 8 11 7 4 1 3
3 7 9 11 10 10 11 14 14 14 16 18 19 19 18 16 16 16 14 13 13 13 5 7 7 6 6 9 12 6 3 1 3
Wind_Direction
187 182 177 169 172 167 168 172 171 178 178 187 187 188 195 200 197 202 205 197 217 210 205 224 217 215 224 217 217 217 212 217 224
194 184 173 164 169 172 170 178 183 182 176 182 182 185 186 187 195 212 195 175 215 329 280 283 211 214 215 223 217 218 217 224 209
199 182 171 163 168 172 173 177 179 186 183 182 181 182 184 184 185 188 191 190 202 245 282 254 243 220 211 214 216 217 221 230 211
192 179 173 166 166 172 173 178 175 179 179 176 184 183 176 167 174 177 164 174 181 157 155 207 204 216 227 216 218 218 213 217 223
188 178 170 165 163 165 166 167 167 168 175 175 179 170 168 164 167 172 161 157 149 141 91 91 92 137 189 198 226 232 234 236 241
177 179 173 169 165 168 171 168 169 167 173 176 169 172 172 165 163 156 140 132 123 111 95 78 75 64 34 42 79 208 223 253 257
180 188 177 176 174 176 176 175 174 174 172 171 164 175 164 162 161 148 144 136 135 130 122 123 112 91 73 54 66 54 45 45 33
186 182 185 184 185 183 180 176 174 175 168 164 163 167 159 159 147 138 137 134 132 129 140 127 128 125 92 47 320 29 353 342 333
186 186 189 191 188 186 180 177 175 173 166 164 161 159 157 151 150 141 135 133 134 130 125 109 107 116 117 92 67 23 11 346 320
198 195 192 195 191 184 181 177 173 169 167 158 154 150 146 147 149 147 140 139 138 137 134 122 107 104 111 88 70 35 24 354 322
200 200 195 190 189 181 174 174 172 166 156 152 149 146 143 143 157 146 145 144 145 152 161 154 140 130 124 123 62 36 25 351 325
199 185 183 186 185 172 168 169 163 160 152 147 143 142 132 139 149 152 144 159 144 154 164 158 145 123 128 120 83 39 24 353 306
189 179 166 164 162 162 164 165 164 159 150 151 157 152 158 161 160 170 129 191 155 167 188 163 131 146 126 99 111 49 28 2 312
178 177 163 159 159 167 164 163 162 156 157 172 194 190 168 164 165 150 123 178 187 186 190 148 149 146 136 114 47 64 38 14 320
153 155 155 166 165 167 163 170 168 172 184 189 174 163 143 134 131 148 142 151 180 180 178 157 159 150 176 142 116 69 73 35 22
142 148 156 159 167 166 174 180 181 191 186 163 165 157 151 150 156 166 142 164 185 196 199 183 180 176 160 132 109 125 126 119 35
156 169 166 169 171 174 172 179 188 176 146 165 166 164 162 161 161 159 155 175 195 204 189 182 162 159 149 124 114 78 26 45 177
207 182 186 183 173 175 178 181 181 169 164 165 170 162 158 159 151 150 170 197 191 198 138 102 166 148 136 133 105 72 58 25 15
204 188 181 188 189 169 173 178 179 174 168 169 159 155 155 161 166 172 178 176 169 51 70 75 75 67 72 92 99 118 136 94 355
208 202 195 197 198 187 180 183 173 174 170 176 169 164 166 174 180 182 180 181 177 170 120 99 113 119 106 67 129 124 131 193 260